PRSC-E03

Last updated on Mon Jun 22 2026 00:02:52 GMT+0000 (Coordinated Universal Time)

1 68835U 26092A 26172.16475108 .00002165 00000+0 15028-3 0 9991 2 68835 38.0017 66.2248 0003038 39.8962 320.2023 15.06685873 8559
UTC large
Height (km)
Speed (km/s)
/
Latitude / Longitude
Inclination (degrees)
Orbital Period (minutes)
Azimuth
Elevation
Range (km)
Doppler Factor

Next 0 passes for location: London (51.5072 / 0.1276)

No passes found over London.
PRSC-E03